Back to catalog

STARLINK-33982

AliveCommunicationsVLEO
NORAD 63707·PAYLOAD·🇺🇸 United States

Launched Apr 28, 2025 from Vandenberg Space Force Base

Loading…

Next Passes (next 24 hours)

TLE

FreshSource: CelesTrak SupGP

Epoch: Sep 15, 2026, 03:34 UTC

1 63707C 25087L   26258.14909722 -.00020018  00000+0 -59161-3 0  2587
2 63707  53.1594  58.3958 0001053  91.8073 237.4486 15.34391369    16

Track STARLINK-33982 in real time with AllMySat

Download on the App Store